| time (UTC) | temp F | wind direction | speed knots | gust knots | rain 1hr in | rain 24hr in | rain mn in | humidity % | barometer mb |
| 20260510193055 | 79 | 347 | 12.2 | 18.2 | 0.00 | 0.40 | 0.01 | 84 | 1015.2 |
| 20260510191555 | 80 | 49 | 5.2 | 11.3 | 0.00 | 0.40 | 0.01 | 82 | 1015.1 |
| 20260510190054 | 82 | 73 | 6.1 | 12.2 | 0.00 | 0.40 | 0.01 | 81 | 1014.9 |
| 20260510184600 | 82 | 82 | 5.2 | 14.8 | 0.00 | 0.40 | 0.01 | 81 | 1015.2 |
| 20260510183055 | 83 | 40 | 4.3 | 12.2 | 0.00 | 0.40 | 0.01 | 80 | 1015.5 |
| 20260510181553 | 83 | 78 | 5.2 | 8.7 | 0.00 | 0.40 | 0.01 | 79 | 1015.4 |
| 20260510180050 | 83 | 37 | 3.5 | 7.8 | 0.00 | 0.40 | 0.01 | 81 | 1015.4 |
| 20260510174558 | 83 | 52 | 2.6 | 6.1 | 0.00 | 0.40 | 0.01 | 78 | 1015.6 |
| 20260510173048 | 84 | 80 | 2.6 | 7.8 | 0.00 | 0.40 | 0.01 | 78 | 1015.7 |
| 20260510171554 | 83 | 94 | 2.6 | 7.8 | 0.00 | 0.40 | 0.01 | 78 | 1015.8 |
| 20260510170051 | 85 | 96 | 0.9 | 7.0 | 0.00 | 0.40 | 0.01 | 74 | 1016.0 |
| 20260510164550 | 86 | 0 | 2.6 | 7.0 | 0.00 | 0.40 | 0.01 | 66 | 1016.1 |
| 20260510163049 | 85 | 257 | 3.5 | 7.8 | 0.00 | 0.40 | 0.01 | 69 | 1016.3 |
| 20260510161553 | 85 | 301 | 6.1 | 9.6 | 0.00 | 0.40 | 0.01 | 67 | 1016.4 |
| 20260510160052 | 85 | 223 | 3.5 | 7.8 | 0.00 | 0.40 | 0.01 | 68 | 1016.3 |
| 20260510154550 | 85 | 292 | 4.3 | 8.7 | 0.00 | 0.40 | 0.01 | 67 | 1016.5 |
| 20260510153051 | 85 | 295 | 2.6 | 8.7 | 0.00 | 0.40 | 0.01 | 66 | 1016.4 |
| 20260510151552 | 85 | 236 | 3.5 | 7.0 | 0.00 | 0.40 | 0.01 | 67 | 1016.2 |
| 20260510150055 | 84 | 251 | 3.5 | 7.8 | 0.00 | 0.40 | 0.01 | 70 | 1016.2 |
| 20260510144607 | 83 | 257 | 1.7 | 6.1 | 0.00 | 0.40 | 0.01 | 73 | 1016.1 |
| 20260510143107 | 82 | 194 | 2.6 | 5.2 | 0.00 | 0.40 | 0.01 | 76 | 1016.2 |
| 20260510141603 | 81 | 203 | 2.6 | 6.1 | 0.00 | 0.40 | 0.01 | 79 | 1016.0 |
| 20260510140051 | 80 | 216 | 1.7 | 3.5 | 0.00 | 0.40 | 0.01 | 83 | 1015.7 |
| 20260510134604 | 78 | 211 | 2.6 | 4.3 | 0.00 | 0.40 | 0.01 | 85 | 1015.7 |
| 20260510133055 | 77 | 236 | 2.6 | 6.1 | 0.00 | 0.40 | 0.01 | 88 | 1015.7 |
| 20260510131551 | 77 | 223 | 2.6 | 7.0 | 0.00 | 0.40 | 0.01 | 89 | 1015.6 |
| 20260510130051 | 76 | 226 | 1.7 | 4.3 | 0.00 | 0.40 | 0.01 | 91 | 1015.5 |
| 20260510124602 | 75 | 175 | 0.9 | 5.2 | 0.00 | 0.40 | 0.01 | 91 | 1015.5 |
| 20260510123051 | 75 | 232 | 0.9 | 3.5 | 0.00 | 0.40 | 0.01 | 91 | 1015.4 |
| 20260510121548 | 75 | 219 | 2.6 | 4.3 | 0.01 | 0.40 | 0.01 | 91 | 1015.2 |
| 20260510120052 | 75 | 0 | 0.9 | 2.6 | 0.01 | 0.40 | 0.01 | 92 | 1015.0 |
| 20260510114554 | 74 | 276 | 0.9 | 2.6 | 0.01 | 0.40 | 0.01 | 92 | 1014.6 |
| 20260510113049 | 74 | 0 | 0.0 | 0.9 | 0.01 | 0.40 | 0.01 | 92 | 1014.5 |
| 20260510111605 | 74 | 0 | 0.9 | 1.7 | 0.00 | 0.39 | 0.00 | 92 | 1014.4 |
| 20260510110052 | 73 | 0 | 0.0 | 0.0 | 0.00 | 0.39 | 0.00 | 92 | 1014.2 |
| 20260510104611 | 73 | 207 | 1.7 | 3.5 | 0.00 | 0.39 | 0.00 | 92 | 1013.8 |
| 20260510103055 | 74 | 209 | 1.7 | 3.5 | 0.00 | 0.39 | 0.00 | 92 | 1013.7 |
| 20260510101555 | 74 | 0 | 0.0 | 1.7 | 0.00 | 0.39 | 0.00 | 92 | 1013.6 |
| 20260510094555 | 74 | 0 | 0.0 | 2.6 | 0.00 | 0.39 | 0.00 | 92 | 1013.3 |
| 20260510093055 | 74 | 0 | 0.9 | 4.3 | 0.00 | 0.39 | 0.00 | 92 | 1013.1 |
| 20260510091555 | 74 | 181 | 1.7 | 3.5 | 0.00 | 0.39 | 0.00 | 92 | 1012.9 |
| 20260510090053 | 74 | 217 | 1.7 | 3.5 | 0.00 | 0.39 | 0.00 | 92 | 1012.8 |
| 20260510084552 | 74 | 200 | 0.9 | 1.7 | 0.00 | 0.39 | 0.00 | 92 | 1012.7 |
| 20260510083059 | 74 | 208 | 0.9 | 1.7 | 0.00 | 0.39 | 0.00 | 91 | 1012.9 |
| 20260510081628 | 74 | 211 | 1.7 | 3.5 | 0.00 | 0.39 | 0.00 | 91 | 1013.0 |
| 20260510080057 | 74 | 0 | 0.0 | 0.0 | 0.00 | 0.39 | 0.00 | 91 | 1013.0 |
| 20260510074557 | 74 | 0 | 0.0 | 0.0 | 0.00 | 0.39 | 0.00 | 91 | 1012.9 |
| 20260510073052 | 75 | 0 | 0.0 | 0.0 | 0.00 | 0.39 | 0.00 | 91 | 1013.0 |
| 20260510071553 | 75 | 0 | 0.0 | 0.0 | 0.00 | 0.39 | 0.00 | 90 | 1013.0 |
| 20260510070055 | 75 | 0 | 0.0 | 0.0 | 0.00 | 0.39 | 0.00 | 90 | 1013.3 |
| 20260510064551 | 75 | 0 | 0.0 | 0.0 | 0.00 | 0.39 | 0.00 | 90 | 1013.3 |
| 20260510063059 | 76 | 0 | 0.0 | 0.0 | 0.00 | 0.39 | 0.00 | 89 | 1013.4 |
| 20260510061552 | 76 | 0 | 0.0 | 0.0 | 0.00 | 0.39 | 0.00 | 89 | 1013.6 |
| 20260510060054 | 76 | 0 | 0.0 | 0.0 | 0.00 | 0.39 | 0.00 | 88 | 1013.9 |
| 20260510054549 | 76 | 0 | 0.0 | 0.0 | 0.00 | 0.39 | 0.00 | 88 | 1013.9 |
| 20260510053057 | 76 | 0 | 0.0 | 1.7 | 0.00 | 0.39 | 0.00 | 88 | 1014.2 |
| 20260510051626 | 75 | 146 | 0.9 | 2.6 | 0.00 | 0.39 | 0.00 | 88 | 1014.2 |
| 20260510050051 | 75 | 144 | 0.9 | 3.5 | 0.00 | 0.39 | 0.00 | 88 | 1014.5 |
| 20260510044553 | 76 | 117 | 0.0 | 2.6 | 0.00 | 0.39 | 0.00 | 88 | 1014.6 |
| 20260510043132 | 76 | 114 | 0.9 | 3.5 | 0.00 | 0.39 | 0.00 | 87 | 1014.4 |
| 20260510041555 | 76 | 134 | 0.9 | 6.1 | 0.00 | 0.39 | 0.00 | 87 | 1014.6 |
| 20260510040050 | 75 | 130 | 2.6 | 6.1 | 0.00 | 0.39 | 0.00 | 86 | 1014.5 |
| 20260510034553 | 75 | 135 | 1.7 | 5.2 | 0.00 | 0.39 | 0.39 | 87 | 1014.5 |
| 20260510033056 | 76 | 133 | 1.7 | 5.2 | 0.00 | 0.39 | 0.39 | 87 | 1014.6 |
| 20260510031625 | 76 | 123 | 1.7 | 5.2 | 0.00 | 0.39 | 0.39 | 87 | 1014.5 |
| 20260510030053 | 76 | 140 | 1.7 | 7.0 | 0.00 | 0.39 | 0.39 | 87 | 1014.5 |
| 20260510024549 | 76 | 117 | 1.7 | 6.1 | 0.00 | 0.39 | 0.39 | 87 | 1014.6 |
| 20260510023057 | 76 | 143 | 1.7 | 3.5 | 0.00 | 0.39 | 0.39 | 87 | 1014.7 |
| 20260510021549 | 76 | 120 | 0.9 | 3.5 | 0.00 | 0.39 | 0.39 | 87 | 1014.5 |
| 20260510020049 | 76 | 119 | 0.9 | 3.5 | 0.00 | 0.39 | 0.39 | 86 | 1014.2 |
| 20260510014552 | 76 | 103 | 0.9 | 2.6 | 0.00 | 0.39 | 0.39 | 86 | 1014.3 |
| 20260510013047 | 76 | 0 | 0.9 | 2.6 | 0.00 | 0.39 | 0.39 | 85 | 1014.1 |
| 20260510011603 | 75 | 0 | 0.0 | 1.7 | 0.00 | 0.39 | 0.39 | 85 | 1013.9 |
| 20260510010106 | 75 | 0 | 0.0 | 2.6 | 0.00 | 0.39 | 0.39 | 85 | 1014.0 |
| 20260510004551 | 75 | 95 | 1.7 | 3.5 | 0.00 | 0.39 | 0.39 | 85 | 1013.8 |
| 20260510003101 | 76 | 0 | 0.9 | 3.5 | 0.00 | 0.39 | 0.39 | 85 | 1013.4 |
| 20260510001550 | 75 | 57 | 0.9 | 3.5 | 0.00 | 0.39 | 0.39 | 85 | 1013.1 |
| 20260510000052 | 75 | 46 | 0.0 | 0.9 | 0.00 | 0.39 | 0.39 | 87 | 1013.0 |
| 20260509234558 | 75 | 60 | 1.7 | 3.5 | 0.00 | 1.63 | 0.39 | 87 | 1013.1 |
| 20260509233050 | 75 | 96 | 0.9 | 2.6 | 0.00 | 1.63 | 0.39 | 88 | 1012.9 |
| 20260509231559 | 75 | 74 | 0.9 | 5.2 | 0.00 | 1.63 | 0.39 | 87 | 1012.7 |
| 20260509230054 | 75 | 101 | 1.7 | 6.1 | 0.00 | 1.63 | 0.39 | 87 | 1012.5 |
| 20260509224557 | 75 | 69 | 1.7 | 5.2 | 0.00 | 1.63 | 0.39 | 87 | 1012.4 |
| 20260509223051 | 75 | 103 | 2.6 | 7.0 | 0.12 | 1.63 | 0.39 | 87 | 1012.7 |
| 20260509221554 | 75 | 34 | 2.6 | 9.6 | 0.39 | 1.63 | 0.39 | 88 | 1013.1 |
| 20260509220053 | 74 | 351 | 1.7 | 5.2 | 0.39 | 1.63 | 0.39 | 88 | 1012.9 |
| 20260509214552 | 74 | 322 | 5.2 | 10.4 | 0.39 | 1.63 | 0.39 | 87 | 1012.7 |
| 20260509213101 | 76 | 336 | 4.3 | 13.9 | 0.26 | 1.50 | 0.26 | 83 | 1012.5 |
| 20260509211613 | 78 | 338 | 5.2 | 13.0 | 0.00 | 1.24 | 0.00 | 80 | 1011.8 |
| 20260509210058 | 79 | 329 | 8.7 | 15.6 | 0.00 | 1.24 | 0.00 | 81 | 1011.8 |
| 20260509204603 | 80 | 352 | 3.5 | 7.0 | 0.00 | 1.24 | 0.00 | 85 | 1011.7 |
| 20260509203058 | 81 | 91 | 4.3 | 7.0 | 0.00 | 1.24 | 0.00 | 84 | 1011.3 |
| 20260509201553 | 81 | 99 | 2.6 | 7.8 | 0.00 | 1.24 | 0.00 | 84 | 1011.3 |
| 20260509200056 | 81 | 82 | 3.5 | 8.7 | 0.00 | 1.24 | 0.00 | 83 | 1011.3 |
| 20260509194553 | 82 | 90 | 3.5 | 7.0 | 0.00 | 1.24 | 0.00 | 82 | 1011.4 |